South St. Paul, MN

1:53 AM CST on January 17, 2018 (GMT -0600)
South Saint Paul Municipal-Fleming

Weather History for KSGS - January, 2014

Change the Weather History Date:

Tuesday, January 14, 2014

  Actual Average (KSTP) Record (KSTP)
Temperature  
Mean Temperature 22 °F -  
Max Temperature 31 °F 21 °F 35 °F (2001)
Min Temperature 11 °F 6 °F -11 °F (2005)
Degree Days  
Heating Degree Days 44    
Moisture  
Dew Point 16 °F    
Average Humidity 75    
Maximum Humidity 93    
Minimum Humidity 58    
Precipitation  
Precipitation 0.07 in - - ()
Sea Level Pressure  
Sea Level Pressure 29.81 in    
Wind  
Wind Speed 8 mph (NNW)    
Max Wind Speed 18 mph    
Max Gust Speed 26 mph    
Visibility 6 miles    
Events Snow    
Averages and records for this station are not official NWS values.
T = Trace of Precipitation, MM = Missing Value Source: NWS Daily Summary

Daily Weather History Graph

Daily Weather History Graph

Search for Another Location

Airport or City:

Trip Planner

Search our weather history database for the weather conditions in past years. The results will help you decide how hot, cold, wet, or windy it might be!

Date:

Astronomy

Jan. 14, 2014 Rise Set
Actual Time 7:46 AM CST 4:56 PM CST
Civil Twilight 7:14 AM CST 5:28 PM CST
Nautical Twilight 6:37 AM CST 6:05 PM CST
Astronomical Twilight 6:02 AM CST 6:40 PM CST
Moon 4:03 PM CST (1/14) 6:20 AM CST (1/14)
Length of Visible Light 10h 14m
Length of Day
9h 09m
Waxing Gibbous, 98% of the Moon is Illuminated
Jan 14
Waxing Gibbous
Jan 15
Full
Jan 23
Last Quarter
Jan 30
New
Feb 6
First Quarter

Hourly Weather History & Observations

Time (CST) Temp. Windchill Dew Point Humidity Pressure Visibility Wind Dir Wind Speed Gust Speed Precip Events Conditions
12:12 AM 29.7 °F - 25.7 °F 85% 29.52 in 10.0 mi Calm Calm - N/A   Mostly Cloudy
12:32 AM 30.0 °F - 26.1 °F 85% 29.51 in 10.0 mi Calm Calm - N/A   Overcast
12:52 AM 30.2 °F 25.4 °F 26.4 °F 86% 29.50 in 10.0 mi SE 4.6 mph - N/A   Overcast
1:12 AM 30.6 °F - 26.4 °F 85% 29.50 in 10.0 mi Calm Calm - N/A   Overcast
1:32 AM 31.1 °F 27.7 °F 26.6 °F 83% 29.48 in 10.0 mi ESE 3.5 mph - N/A   Overcast
1:52 AM 31.1 °F 27.7 °F 26.4 °F 83% 29.49 in 10.0 mi SE 3.5 mph - N/A   Mostly Cloudy
2:12 AM 31.1 °F - 26.6 °F 83% 29.49 in 7.0 mi Calm Calm - N/A   Mostly Cloudy
2:32 AM 30.9 °F - 27.5 °F 87% 29.48 in 1.5 mi Calm Calm - N/A Snow Light Snow
2:52 AM 30.9 °F 27.5 °F 28.2 °F 90% 29.48 in 1.2 mi East 3.5 mph - 0.01 in Snow Light Snow
3:12 AM 30.9 °F - 28.4 °F 90% 29.48 in 1.8 mi Calm Calm - 0.01 in Snow Light Snow
3:32 AM 30.9 °F - 28.4 °F 90% 29.47 in 1.2 mi Calm Calm - 0.02 in Snow Light Snow
3:52 AM 30.7 °F - 28.4 °F 91% 29.47 in 1.2 mi Calm Calm - 0.03 in   Overcast
4:12 AM 30.6 °F - 28.4 °F 92% 29.48 in 1.5 mi Calm Calm - 0.02 in   Overcast
4:32 AM 30.2 °F 25.4 °F 28.4 °F 93% 29.48 in 1.5 mi North 4.6 mph - 0.03 in Snow Light Snow
4:52 AM 30.0 °F 23.2 °F 28.0 °F 92% 29.49 in 1.8 mi NNW 6.9 mph - 0.03 in Snow Light Snow
5:12 AM 29.3 °F 20.8 °F 27.0 °F 91% 29.51 in 2.5 mi NNW 9.2 mph 17.3 mph N/A Snow Light Snow
5:32 AM 28.4 °F 18.0 °F 25.7 °F 90% 29.52 in 1.8 mi North 12.7 mph 18.4 mph N/A Snow Light Snow
5:52 AM 27.7 °F 16.6 °F 24.4 °F 88% 29.54 in 2.0 mi NNW 13.8 mph 19.6 mph N/A Snow Light Snow
6:12 AM 26.2 °F 15.8 °F 22.8 °F 87% 29.55 in 2.5 mi North 11.5 mph 20.7 mph N/A Snow Light Snow
6:32 AM 26.1 °F 14.5 °F 22.6 °F 87% 29.57 in 2.5 mi North 13.8 mph - N/A Snow Light Snow
6:52 AM 26.2 °F 17.1 °F 22.6 °F 86% 29.60 in 3.0 mi NNW 9.2 mph - N/A Snow Light Snow
7:12 AM 25.9 °F 12.9 °F 22.1 °F 86% 29.62 in 2.5 mi NNW 17.3 mph 23.0 mph N/A Snow Light Snow
7:32 AM 25.3 °F 13.6 °F 21.2 °F 84% 29.64 in 2.5 mi NNW 13.8 mph 21.9 mph N/A Snow Light Snow
7:52 AM 24.8 °F 11.5 °F 21.0 °F 86% 29.67 in 1.8 mi NNW 17.3 mph 26.5 mph N/A Snow Light Snow
8:12 AM 24.6 °F 12.2 °F 20.8 °F 86% 29.68 in 1.2 mi NNW 15.0 mph 23.0 mph N/A Snow Light Snow
8:32 AM 24.4 °F 10.6 °F 20.1 °F 84% 29.70 in 1.5 mi NNW 18.4 mph 23.0 mph N/A Snow Light Snow
8:52 AM 24.3 °F 11.2 °F 19.9 °F 84% 29.72 in 1.2 mi NNW 16.1 mph 23.0 mph N/A Snow Light Snow
9:12 AM 23.9 °F 12.3 °F 19.4 °F 83% 29.74 in 1.5 mi NNW 12.7 mph 21.9 mph N/A Snow Light Snow
9:32 AM 23.9 °F 12.9 °F 19.2 °F 82% 29.76 in 1.8 mi NNW 11.5 mph 19.6 mph N/A Snow Light Snow
9:52 AM 23.7 °F 12.1 °F 18.7 °F 81% 29.77 in 1.5 mi NNW 12.7 mph 23.0 mph N/A Snow Light Snow
10:12 AM 23.0 °F 8.7 °F 18.1 °F 82% 29.79 in 1.8 mi NW 18.4 mph 21.9 mph N/A   Haze
10:32 AM 22.5 °F 8.5 °F 17.2 °F 80% 29.81 in 1.5 mi NNW 17.3 mph 24.2 mph N/A   Haze
10:52 AM 22.1 °F 8.9 °F 16.5 °F 79% 29.82 in 1.8 mi NNW 15.0 mph 23.0 mph N/A   Haze
11:12 AM 21.9 °F 7.8 °F 16.3 °F 79% 29.82 in 1.8 mi NW 17.3 mph 24.2 mph N/A   Haze
11:32 AM 21.7 °F 8.0 °F 15.4 °F 77% 29.84 in 3.0 mi NNW 16.1 mph 24.2 mph N/A   Haze
11:52 AM 22.1 °F 10.0 °F 15.8 °F 77% 29.85 in 4.0 mi NNW 12.7 mph 20.7 mph N/A   Haze
12:12 PM 22.5 °F 9.9 °F 15.8 °F 76% 29.85 in 4.0 mi NNW 13.8 mph 23.0 mph N/A   Haze
12:32 PM 23.0 °F 10.6 °F 16.2 °F 75% 29.85 in 5.0 mi NW 13.8 mph 20.7 mph N/A   Haze
12:52 PM 22.8 °F 9.4 °F 15.4 °F 73% 29.86 in 7.0 mi NW 16.1 mph 20.7 mph N/A   Overcast
1:12 PM 22.8 °F 10.4 °F 14.0 °F 69% 29.87 in 10.0 mi NW 13.8 mph 21.9 mph N/A   Mostly Cloudy
1:32 PM 22.8 °F 8.9 °F 11.1 °F 61% 29.88 in 10.0 mi NNW 17.3 mph 24.2 mph N/A   Mostly Cloudy
1:52 PM 22.1 °F 8.9 °F 12.2 °F 66% 29.90 in 10.0 mi NW 15.0 mph 21.9 mph N/A   Scattered Clouds
2:12 PM 22.1 °F 8.9 °F 11.3 °F 63% 29.90 in 10.0 mi NW 15.0 mph 23.0 mph N/A   Scattered Clouds
2:32 PM 22.1 °F 9.5 °F 10.8 °F 62% 29.91 in 10.0 mi NW 13.8 mph 24.2 mph N/A   Scattered Clouds
2:52 PM 22.1 °F 8.9 °F 10.2 °F 60% 29.92 in 10.0 mi NNW 15.0 mph 23.0 mph N/A   Scattered Clouds
3:12 PM 22.1 °F 8.9 °F 9.5 °F 58% 29.94 in 10.0 mi NNW 15.0 mph 19.6 mph N/A   Clear
3:32 PM 21.9 °F 12.5 °F 9.3 °F 58% 29.95 in 10.0 mi North 8.1 mph - N/A   Clear
3:52 PM 21.7 °F 8.5 °F 10.4 °F 62% 29.97 in 10.0 mi NW 15.0 mph 20.7 mph N/A   Clear
4:12 PM 21.6 °F 9.3 °F 9.9 °F 61% 29.97 in 10.0 mi NW 12.7 mph 17.3 mph N/A   Clear
4:32 PM 21.2 °F 9.5 °F 9.5 °F 61% 29.98 in 10.0 mi NW 11.5 mph 20.7 mph N/A   Clear
4:52 PM 21.2 °F 10.1 °F 9.5 °F 61% 30.00 in 10.0 mi NNW 10.4 mph 21.9 mph N/A   Clear
5:12 PM 20.7 °F 7.6 °F 8.6 °F 60% 30.00 in 10.0 mi NW 13.8 mph 21.9 mph N/A   Clear
5:32 PM 20.3 °F 9.0 °F 8.2 °F 60% 30.02 in 10.0 mi NNW 10.4 mph 21.9 mph N/A   Clear
5:52 PM 19.6 °F 8.1 °F 8.4 °F 62% 30.02 in 10.0 mi NW 10.4 mph 18.4 mph N/A   Clear
6:12 PM 19.2 °F 7.0 °F 8.2 °F 62% 30.03 in 10.0 mi NW 11.5 mph - N/A   Clear
6:32 PM 19.0 °F 6.8 °F 7.9 °F 62% 30.04 in 10.0 mi NW 11.5 mph 16.1 mph N/A   Clear
6:52 PM 18.9 °F 8.0 °F 7.3 °F 61% 30.04 in 10.0 mi NNW 9.2 mph - N/A   Clear
7:12 PM 18.9 °F 8.0 °F 7.0 °F 60% 30.06 in 10.0 mi NW 9.2 mph - N/A   Clear
7:32 PM 18.0 °F 5.4 °F 6.8 °F 62% 30.07 in 10.0 mi NW 11.5 mph 17.3 mph N/A   Scattered Clouds
7:52 PM 17.8 °F 6.6 °F 6.8 °F 62% 30.07 in 10.0 mi NNW 9.2 mph 17.3 mph N/A   Scattered Clouds
8:12 PM 17.4 °F 7.1 °F 6.4 °F 62% 30.07 in 10.0 mi NW 8.1 mph 16.1 mph N/A   Clear
8:32 PM 16.7 °F 6.2 °F 6.1 °F 63% 30.07 in 10.0 mi NNW 8.1 mph - N/A   Clear
8:52 PM 16.3 °F 4.9 °F 6.1 °F 64% 30.08 in 10.0 mi NW 9.2 mph - N/A   Clear
9:12 PM 15.8 °F 6.1 °F 5.9 °F 65% 30.09 in 10.0 mi NW 6.9 mph - N/A   Clear
9:32 PM 15.1 °F 2.5 °F 6.4 °F 69% 30.10 in 10.0 mi NW 10.4 mph - N/A   Clear
9:52 PM 14.9 °F 1.6 °F 6.4 °F 69% 30.10 in 10.0 mi NW 11.5 mph - N/A   Clear
10:12 PM 14.0 °F 2.0 °F 5.9 °F 70% 30.10 in 10.0 mi NW 9.2 mph - N/A   Clear
10:32 PM 13.6 °F 2.5 °F 5.9 °F 71% 30.11 in 10.0 mi NW 8.1 mph - N/A   Clear
10:52 PM 12.9 °F -0.2 °F 5.0 °F 71% 30.11 in 10.0 mi NW 10.4 mph - N/A   Clear
11:12 PM 12.6 °F 0.2 °F 4.8 °F 71% 30.11 in 10.0 mi NW 9.2 mph - N/A   Clear
11:32 PM 12.2 °F 0.7 °F 4.5 °F 71% 30.11 in 10.0 mi NW 8.1 mph - N/A   Clear
11:52 PM 11.3 °F -2.2 °F 3.7 °F 72% 30.11 in 10.0 mi NW 10.4 mph - N/A   Clear